Location: Sungai Liu
(2.3667°N, 113.8667°E)
Time: 14:03:04
(UTC+00:00)

Cosmos 2263 - Pass Details

Date: 20 May 2022
Orbit: 831 x 866 km, 70.9° (Epoch: 06 July)

Event Time Altitude Azimuth Distance (km) Brightness Sun altitude
Rises 21:39:51 0° 347° (NNW) 3,404 7.5 -8.8°
Reaches altitude 10° 21:42:17 10° 348° (NNW) 2,475 6.8 -8.3°
Maximum altitude 21:47:59 81° 75° (ENE) 873 4.4 -6.9°
Drops below altitude 10° 21:53:45 10° 162° (SSE) 2,501 6.7 -5.6°
Sets 21:56:13 0° 162° (SSE) 3,441 7.3 -5.0°
